User: anonymous   Login
Location: Ciserano
(45.5833°N, 9.6000°E)
Time: 20:17:12
(UTC+00:00)
Language:

FALCON 9 DEB - Orbit

View from above orbital plane
View from above orbital plane
View from above satellite
View from above satellite

Ground track
Ground track

The orbit data is extracted from the following two-line orbital elements,

1 46085U 20055BL  21126.93967191  .00009220  00000-0  10292-3 0  9992
2 46085  53.0123  41.7100 0012115 107.0005 253.2337 15.63563397 47166
Epoch (UTC): 06 May 2021 22:33:07
Eccentricity: 0.0012115
inclination: 53.0123°
perigee height: 369 km
apogee height: 385 km
right ascension of ascending node: 41.7100°
argument of perigee: 107.0005°
revolutions per day: 15.63563397
mean anomaly at epoch: 253.2337°
orbit number at epoch: 4716

The dashed part of the orbit path shows where the satellite is in the earth's shadow,  

DLR